Regional Weather Roundup
Issued by NWS Upton, NY

Current Version | Previous Version | Text Only | Print | Product List | Glossary On
Versions: 1 2 3 4 5 6 7 8 9 10 11 12 13 14 15 16 17 18 19 20 21 22 23 24 25 26 27 28 29 30 31 32 33 34 35 36 37 38 39 40 41 42 43 44 45 46 47 48 49 50
000 ASUS41 KOKX 010405 RWROKX REGIONAL WEATHER ROUNDUP NATIONAL WEATHER SERVICE NEW YORK NY 1100 PM EST SAT JAN 31 2015 NOTE: "FAIR" INDICATES FEW OR NO CLOUDS BELOW 12,000 FEET WITH NO SIGNIFICANT WEATHER AND/OR OBSTRUCTIONS TO VISIBILITY. NYZ071-072-176-178-NJZ106-104-010500- NEW YORK CITY METRO AREA CITY SKY/WX TMP DP RH WIND PRES REMARKS CENTRAL PARK CLEAR 20 4 50 MISG 30.22F LAGUARDIA APRT PTCLDY 21 6 52 NW12 30.21S WCI 9 KENNEDY INTL CLEAR 22 5 48 NW9 30.23R WCI 12 NEWARK/LIBERTY CLEAR 19 6 57 W8 30.22F WCI 9 BRNX BOT. GARD N/A N/A N/A N/A W7 30.21F TETERBORO CLEAR 19 4 51 NW10 30.21F WCI 7 $$ NYZ177-179-078>081-010500- LONG ISLAND NEW YORK CITY SKY/WX TMP DP RH WIND PRES REMARKS FARMINGDALE CLEAR 20 5 52 NW6 30.20S WCI 12 ISLIP CLEAR 19 4 51 NW9 30.18R WCI 8 SHIRLEY CLEAR 18 3 52 NW9 30.20R WCI 7 WESTHAMPTON CLEAR 18 3 52 NW10 30.19R WCI 6 MONTAUK POINT N/A 20 5 52 W16G32 30.14R WCI 6 $$ NYZ052-065-067-010500- HUDSON VALLEY CITY SKY/WX TMP DP RH WIND PRES REMARKS WHITE PLAINS CLEAR 17 4 56 NW6 30.15S WCI 9 NEWBURGH CLEAR 14 7 73 W14 30.16F WCI -1 MONTGOMERY PTCLDY 15 4 61 W9 30.16S WCI 3 POUGHKEEPSIE PTCLDY 7 -1 70 CALM 30.18F ALBANY PTCLDY 11 1 64 W7 30.18S WCI 0 $$ NJZ001-105-106-008-010-013-015-019>022-104-010500- NEW JERSEY CITY SKY/WX TMP DP RH WIND PRES REMARKS NEWARK/LIBERTY CLEAR 19 6 57 W8 30.22F WCI 9 TETERBORO CLEAR 19 4 51 NW10 30.21F WCI 7 CALDWELL CLEAR 16 5 62 CALM 30.21F MORRISTOWN CLEAR 19 5 53 CALM 30.22S SOMERVILLE PTCLDY 14 5 67 CALM 30.21S SUSSEX MOCLDY 7 1 76 W5 30.17F WCI -2 ANDOVER N/A 5 1 83 CALM 30.19S TRENTON CLEAR 20 6 55 W7 30.22S WCI 11 MILLVILLE CLEAR 16 10 77 W3 30.26S ATLANTIC CITY CLEAR 23 8 52 W8 30.25S WCI 14 WRIGHTSTOWN CLEAR 22 8 54 W5 30.21S WCI 16 TOMS RIVER CLEAR 16 9 73 CALM 30.23S BELMAR CLEAR 19 3 49 W5 30.21S WCI 13 $$ PAZ047>061-062-071-010500- EASTERN PENNSYLVANIA CITY SKY/WX TMP DP RH WIND PRES REMARKS PHILADELPHIA CLEAR 22 8 55 W9 30.26S WCI 12 ALLENTOWN CLEAR 16 5 62 SW3 30.20S SCRANTON PTCLDY 9 1 70 MISG 30.16S $$ CTZ002-004>006-009-010-012-RIZ004-006-007-MAZ004-011-015-010500- SOUTHERN NEW ENGLAND IN CT CITY SKY/WX TMP DP RH WIND PRES REMARKS BRADLEY INTL CLEAR 16 0 49 NW12 30.11F WCI 3 HARTFORD CLEAR 16 1 51 VRB5 30.15S WCI 9 DANBURY PTCLDY 9 -2 61 SW5 30.16S WCI 1 WTRBRY/OXFORD CLEAR 12 -2 52 W6 30.11S WCI 3 BRIDGEPORT CLEAR 16 3 56 W6 30.20R WCI 7 MERIDEN CLEAR 16 2 54 CALM 30.16R NEW HAVEN CLEAR 18 4 54 W8 30.17S WCI 8 CHESTER FAIR 18 3 53 NW7 30.12S WCI 8 GROTON CLEAR 14 1 56 W14G23 30.13R WCI -1 WILLIMANTIC CLEAR 13 -3 49 NW3 30.11R IN RI CITY SKY/WX TMP DP RH WIND PRES REMARKS PROVIDENCE FAIR 14 -6 40 W10 30.08R WCI 1 BLOCK ISLAND CLEAR 18 1 49 NW16G26 30.08S WCI 3 WESTERLY CLEAR 14 -3 47 W8 30.11S WCI 3 IN MA CITY SKY/WX TMP DP RH WIND PRES REMARKS BOSTON CLEAR 15 -6 39 W15G23 30.03S WCI 0 WORCESTER CLEAR N/A N/A N/A W8 29.98R WESTFIELD PTCLDY 14 0 53 NW14 30.10S WCI -1 PROVINCETOWN CLEAR 21 7 53 NW33G44 29.97R WCI 2 NANTUCKET CLEAR 20 2 45 NW21G36 30.00R WCI 4 $$ ANZ330-335-338-340-345-350-353-355-010500- COASTAL MARINE OBSERVATIONS STATION/POSITION TIME SKY/WX TEMP WIND PRES VSBY WAVE AIR SEA DIR/SP/G HT/PER (UTC) (F) (DEG/KT/KT) (MB) (MI) (FT/S) NY HARB ENTRANCE 0400 26 40 300/ 21/ 27 1023.1 3/ 4 4S FIRE IS 0400 36 N/A 4/ 5 20S FIRE ISLAND 0300 41 1022.4 6/ 6 23SW MTP 0400 N/A 6/ 5 HUDSON CANYON NOT AVBL EXECUTION ROCKS 0400 22 33 270/ 10/ 16 N/A WESTERN LI SOUND 0400 21 310/ 6/ 10 N/A 1 CENTRAL LI SOUND 0400 21 34 300/ 19/ 25 N/A 3/ 4 EASTERN LI SOUND NOT AVBL ROBBINS REEF 0400 21 310/ 13/ 17 1022.2 $$ >>>>>>>>>>>>>>>>>>>>>>>>>>>> KEY <<<<<<<<<<<<<<<<<<<<<<<<<<< > < > SKY/WX - SKY CONDITION/PRESENT WEATHER < > TMP - TEMPERATURE IN FAHRENHEIT < > DP - DEWPOINT IN FAHRENHEIT < > RH - RELATIVE HUMIDITY IN PERCENT < > WIND - DIRECTION AND SPEED IN MPH < > PRES - MEAN SEA LEVEL PRESSURE IN INCHES OF HG < > WCI - WIND CHILL INDEX < > VSB - VISIBILITY IN MILES < > HX - HEAT INDEX < > TC - TEMPERATURE IN CELSIUS < > VRB - VARIABLE WIND DIRECTION < > < >>>>>>>>>>>>>>>>>>>>>>>>>>>> KEY <<<<<<<<<<<<<<<<<<<<<<<<<<<

USA.gov is the U.S. government's official web portal to all federal, state and local government web resources and services.